Flag for Brazil Weather past 2 weeks in Rio de Janeiro, Rio de Janeiro, Brazil

Now
75 °F

Passing clouds.


Feels Like: 75 °F
Forecast: N/A
Wind: 7 mph from South

Location: Rio De Janeiro Airport


UV Index: N/A

Visibility: N/A


Pressure: 29.95 "Hg

Humidity: 83%

Dew point: 70 °F

Location of Rio de JaneiroLocation

Historic Weather in Rio de Janeiro

°F

Rio de Janeiro temperature yesterday

Maximum temperature yesterday: 75 °F (at 12:00 PM)
Minimum temperature yesterday: 70 °F (at 6:00 AM)
Average temperature yesterday: 73 °F

Past Weeks' High & Low Weather Summary

 TemperatureHumidityPressure
High93 °F (Apr 12, 12:00 PM)100% (Apr 3, 6:00 AM)30.15 "Hg (Apr 3, 6:00 AM)
Low70 °F (Apr 14, 7:00 PM)39% (Apr 12, 12:00 PM)29.74 "Hg (Apr 9, 3:00 PM)
Average77 °F83%29.97 "Hg
* Reported Apr 2 6:00 PM — Apr 17 6:00 PM, Rio de Janeiro, Weather by CustomWeather, © 2014

Note: Actual official high and low records may vary slightly from our data, if they occured in-between our weather recording intervals... More about our weather records

Advertising

Historic Weather Conditions — Data for Previous 24 hours

 ConditionsComfort  
Time TempWeatherWind HumidityBarometerVisibility
6:00 PM
Apr 17
75 °FPassing clouds.7 mph83%29.95 "HgN/A
5:00 PM75 °FPassing clouds.8 mph83%29.95 "HgN/A
4:00 PM75 °FScattered clouds.8 mph83%29.95 "HgN/A
3:00 PM81 °FScattered clouds.14 mph70%29.95 "HgN/A
2:00 PM81 °FScattered clouds.12 mph74%29.98 "HgN/A
1:00 PM81 °FPartly sunny.7 mph70%29.98 "HgN/A
12:00 PM79 °FBroken clouds.5 mph79%30.01 "HgN/A
11:00 AM79 °FBroken clouds.5 mph74%30.04 "HgN/A
10:00 AM77 °FBroken clouds.3 mph89%30.04 "HgN/A
9:00 AM75 °FBroken clouds.5 mph89%30.04 "HgN/A
8:00 AM73 °FBroken clouds.5 mph94%30.01 "HgN/A
7:00 AM72 °FPartly sunny.2 mph94%30.01 "Hg5 mi
6:00 AM72 °FPartly sunny.No wind94%30.01 "HgN/A
11:00 PM
Apr 16
72 °FMostly cloudy.10 mph100%30.04 "Hg4 mi
10:00 PM73 °FDrizzle. Fog.13 mph89%N/A3 mi
9:00 PM72 °FDrizzle. Fog.10 mph94%N/A2 mi
8:00 PM73 °FDrizzle. Mostly cloudy.13 mph89%30.04 "Hg4 mi
7:00 PM73 °FPassing clouds.9 mph89%30.04 "HgN/A
Weather by CustomWeather, © 2014

See weather overview